Time,TemperatureF,DewpointF,PressureIn,WindDirection,WindDirectionDegrees,WindSpeedMPH,WindSpeedGustMPH,Humidity,HourlyPrecipIn,Conditions,Clouds,dailyrainin,SoftwareType,DateUTC
2013-02-26 00:00:00,30.3,26.9,30.25,East,94,0.0,1.0,87,0.00,,,0.00,WUHU216DAVISVP2,2013-02-26 05:00:00,
2013-02-26 00:05:00,30.3,26.9,30.24,East,95,0.0,1.0,87,0.00,,,0.00,WUHU216DAVISVP2,2013-02-26 05:05:00,
2013-02-26 00:10:00,30.2,26.8,30.24,East,95,0.0,1.0,87,0.00,,,0.00,WUHU216DAVISVP2,2013-02-26 05:10:00,
2013-02-26 00:15:00,30.1,26.9,30.24,East,95,0.0,0.0,88,0.00,,,0.00,WUHU216DAVISVP2,2013-02-26 05:15:00,
2013-02-26 00:20:00,30.0,26.9,30.24,East,95,0.0,1.0,88,0.00,,,0.00,WUHU216DAVISVP2,2013-02-26 05:20:00,
2013-02-26 00:25:00,29.8,26.7,30.24,East,94,0.0,1.0,88,0.00,,,0.00,WUHU216DAVISVP2,2013-02-26 05:25:00,
2013-02-26 00:30:00,29.7,26.5,30.25,East,95,0.0,1.0,88,0.00,,,0.00,WUHU216DAVISVP2,2013-02-26 05:30:00,
2013-02-26 00:35:00,29.7,26.8,30.25,SSE,149,0.0,1.0,89,0.00,,,0.00,WUHU216DAVISVP2,2013-02-26 05:35:00,
2013-02-26 00:40:00,29.4,26.5,30.26,SSE,150,0.0,1.0,89,0.00,,,0.00,WUHU216DAVISVP2,2013-02-26 05:40:00,
2013-02-26 00:45:00,29.2,26.3,30.25,SSE,149,0.0,1.0,89,0.00,,,0.00,WUHU216DAVISVP2,2013-02-26 05:45:00,
2013-02-26 00:50:00,29.3,26.7,30.25,SSE,149,0.0,1.0,90,0.00,,,0.00,WUHU216DAVISVP2,2013-02-26 05:50:00,
2013-02-26 00:55:00,29.4,26.8,30.26,SSE,149,0.0,0.0,90,0.00,,,0.00,WUHU216DAVISVP2,2013-02-26 05:55:00,
2013-02-26 01:00:00,29.6,27.0,30.26,SSE,149,0.0,0.0,90,0.00,,,0.00,WUHU216DAVISVP2,2013-02-26 06:00:00,
2013-02-26 01:05:00,29.7,26.8,30.26,SSE,150,0.0,0.0,89,0.00,,,0.00,WUHU216DAVISVP2,2013-02-26 06:05:00,
2013-02-26 01:10:00,29.6,26.7,30.26,SSE,149,0.0,0.0,89,0.00,,,0.00,WUHU216DAVISVP2,2013-02-26 06:10:00,
2013-02-26 01:15:00,29.6,26.7,30.26,SSE,149,0.0,0.0,89,0.00,,,0.00,WUHU216DAVISVP2,2013-02-26 06:15:00,
2013-02-26 01:20:00,29.6,26.7,30.25,SSE,148,0.0,0.0,89,0.00,,,0.00,WUHU216DAVISVP2,2013-02-26 06:20:00,
2013-02-26 01:25:00,29.4,26.2,30.26,SSE,148,0.0,1.0,88,0.00,,,0.00,WUHU216DAVISVP2,2013-02-26 06:25:00,
2013-02-26 01:30:00,29.2,26.4,30.26,SSE,148,0.0,1.0,89,0.00,,,0.00,WUHU216DAVISVP2,2013-02-26 06:30:00,
2013-02-26 01:35:00,29.1,26.3,30.26,ESE,111,1.0,1.0,89,0.00,,,0.00,WUHU216DAVISVP2,2013-02-26 06:35:00,
2013-02-26 01:40:00,28.6,25.5,30.26,ESE,118,0.0,2.0,88,0.00,,,0.00,WUHU216DAVISVP2,2013-02-26 06:40:00,
2013-02-26 01:45:00,28.4,25.8,30.27,ESE,115,0.0,2.0,90,0.00,,,0.00,WUHU216DAVISVP2,2013-02-26 06:45:00,
2013-02-26 01:50:00,28.6,26.0,30.26,ESE,115,0.0,2.0,90,0.00,,,0.00,WUHU216DAVISVP2,2013-02-26 06:50:00,
2013-02-26 01:55:00,28.6,26.3,30.26,ESE,116,0.0,2.0,91,0.00,,,0.00,WUHU216DAVISVP2,2013-02-26 06:55:00,
2013-02-26 02:00:00,28.6,26.3,30.26,ESE,115,0.0,1.0,91,0.00,,,0.00,WUHU216DAVISVP2,2013-02-26 07:00:00,
2013-02-26 02:05:00,28.3,25.7,30.27,ESE,115,0.0,0.0,90,0.00,,,0.00,WUHU216DAVISVP2,2013-02-26 07:05:00,
2013-02-26 02:10:00,28.3,26.0,30.27,ESE,117,0.0,0.0,91,0.00,,,0.00,WUHU216DAVISVP2,2013-02-26 07:10:00,
2013-02-26 02:15:00,28.0,25.7,30.27,ESE,117,0.0,0.0,91,0.00,,,0.00,WUHU216DAVISVP2,2013-02-26 07:15:00,
2013-02-26 02:20:00,27.7,25.4,30.27,ESE,117,0.0,0.0,91,0.00,,,0.00,WUHU216DAVISVP2,2013-02-26 07:20:00,
2013-02-26 02:25:00,27.5,25.2,30.27,ESE,117,0.0,0.0,91,0.00,,,0.00,WUHU216DAVISVP2,2013-02-26 07:25:00,
2013-02-26 02:30:00,27.5,25.4,30.27,ESE,117,0.0,0.0,92,0.00,,,0.00,WUHU216DAVISVP2,2013-02-26 07:30:00,
2013-02-26 02:35:00,27.7,25.9,30.26,ESE,117,0.0,0.0,93,0.00,,,0.00,WUHU216DAVISVP2,2013-02-26 07:35:00,
2013-02-26 02:40:00,27.8,26.0,30.26,ESE,116,0.0,1.0,93,0.00,,,0.00,WUHU216DAVISVP2,2013-02-26 07:40:00,
2013-02-26 02:45:00,28.0,26.2,30.26,ESE,115,0.0,1.0,93,0.00,,,0.00,WUHU216DAVISVP2,2013-02-26 07:45:00,
2013-02-26 02:50:00,28.1,26.0,30.26,ESE,116,0.0,1.0,92,0.00,,,0.00,WUHU216DAVISVP2,2013-02-26 07:50:00,
2013-02-26 02:55:00,27.9,25.8,30.26,ESE,117,0.0,1.0,92,0.00,,,0.00,WUHU216DAVISVP2,2013-02-26 07:55:00,
2013-02-26 03:00:00,27.7,25.6,30.26,ESE,115,0.0,0.0,92,0.00,,,0.00,WUHU216DAVISVP2,2013-02-26 08:00:00,
2013-02-26 03:05:00,27.6,25.5,30.26,ESE,115,0.0,0.0,92,0.00,,,0.00,WUHU216DAVISVP2,2013-02-26 08:05:00,
2013-02-26 03:10:00,27.5,25.5,30.25,ESE,115,0.0,0.0,92,0.00,,,0.00,WUHU216DAVISVP2,2013-02-26 08:10:00,
2013-02-26 03:15:00,27.5,25.7,30.25,ESE,115,0.0,0.0,93,0.00,,,0.00,WUHU216DAVISVP2,2013-02-26 08:15:00,
2013-02-26 03:20:00,27.5,25.7,30.25,ESE,115,0.0,0.0,93,0.00,,,0.00,WUHU216DAVISVP2,2013-02-26 08:20:00,
2013-02-26 03:25:00,27.3,25.5,30.25,ESE,115,0.0,0.0,93,0.00,,,0.00,WUHU216DAVISVP2,2013-02-26 08:25:00,
2013-02-26 03:30:00,27.1,25.3,30.25,ESE,115,0.0,1.0,93,0.00,,,0.00,WUHU216DAVISVP2,2013-02-26 08:30:00,
2013-02-26 03:35:00,27.3,25.5,30.25,ESE,115,0.0,1.0,93,0.00,,,0.00,WUHU216DAVISVP2,2013-02-26 08:35:00,
2013-02-26 03:40:00,27.4,25.9,30.25,ESE,115,0.0,0.0,94,0.00,,,0.00,WUHU216DAVISVP2,2013-02-26 08:40:00,
2013-02-26 03:45:00,27.5,25.7,30.25,ESE,115,0.0,0.0,93,0.00,,,0.00,WUHU216DAVISVP2,2013-02-26 08:45:00,
2013-02-26 03:50:00,27.6,26.1,30.25,ESE,115,0.0,1.0,94,0.00,,,0.00,WUHU216DAVISVP2,2013-02-26 08:50:00,
2013-02-26 03:55:00,27.6,26.1,30.25,ESE,115,0.0,1.0,94,0.00,,,0.00,WUHU216DAVISVP2,2013-02-26 08:55:00,
2013-02-26 04:00:00,27.7,25.9,30.26,ESE,115,0.0,1.0,93,0.00,,,0.00,WUHU216DAVISVP2,2013-02-26 09:00:00,
2013-02-26 04:05:00,27.7,25.9,30.25,ESE,115,0.0,1.0,93,0.00,,,0.00,WUHU216DAVISVP2,2013-02-26 09:05:00,
2013-02-26 04:10:00,27.7,25.9,30.25,ESE,115,0.0,1.0,93,0.00,,,0.00,WUHU216DAVISVP2,2013-02-26 09:10:00,
2013-02-26 04:15:00,27.6,25.8,30.25,ESE,115,0.0,1.0,93,0.00,,,0.00,WUHU216DAVISVP2,2013-02-26 09:15:00,
2013-02-26 04:20:00,27.5,25.7,30.25,ESE,115,0.0,0.0,93,0.00,,,0.00,WUHU216DAVISVP2,2013-02-26 09:20:00,
2013-02-26 04:25:00,27.4,25.6,30.26,ESE,116,0.0,0.0,93,0.00,,,0.00,WUHU216DAVISVP2,2013-02-26 09:25:00,
2013-02-26 04:30:00,27.4,25.6,30.26,ESE,113,0.0,1.0,93,0.00,,,0.00,WUHU216DAVISVP2,2013-02-26 09:30:00,
2013-02-26 04:35:00,27.3,25.5,30.25,East,91,1.0,1.0,93,0.00,,,0.00,WUHU216DAVISVP2,2013-02-26 09:35:00,
2013-02-26 04:40:00,27.3,25.5,30.25,East,90,0.0,1.0,93,0.00,,,0.00,WUHU216DAVISVP2,2013-02-26 09:40:00,
2013-02-26 04:45:00,27.3,25.5,30.25,East,91,0.0,1.0,93,0.00,,,0.00,WUHU216DAVISVP2,2013-02-26 09:45:00,
2013-02-26 04:50:00,27.1,25.3,30.25,East,91,0.0,1.0,93,0.00,,,0.00,WUHU216DAVISVP2,2013-02-26 09:50:00,
2013-02-26 04:55:00,27.1,25.3,30.26,East,86,0.0,1.0,93,0.00,,,0.00,WUHU216DAVISVP2,2013-02-26 09:55:00,
2013-02-26 05:00:00,27.1,25.3,30.26,East,86,0.0,1.0,93,0.00,,,0.00,WUHU216DAVISVP2,2013-02-26 10:00:00,
2013-02-26 05:05:00,27.0,25.2,30.25,East,80,1.0,1.0,93,0.00,,,0.00,WUHU216DAVISVP2,2013-02-26 10:05:00,
2013-02-26 05:10:00,26.7,24.9,30.26,East,81,1.0,1.0,93,0.00,,,0.00,WUHU216DAVISVP2,2013-02-26 10:10:00,
2013-02-26 05:15:00,26.6,24.8,30.26,East,80,1.0,1.0,93,0.00,,,0.00,WUHU216DAVISVP2,2013-02-26 10:15:00,
2013-02-26 05:20:00,26.5,24.7,30.26,East,81,0.0,1.0,93,0.00,,,0.00,WUHU216DAVISVP2,2013-02-26 10:20:00,
2013-02-26 05:25:00,26.5,24.7,30.26,East,81,0.0,1.0,93,0.00,,,0.00,WUHU216DAVISVP2,2013-02-26 10:25:00,
2013-02-26 05:30:00,26.5,24.7,30.27,East,81,0.0,1.0,93,0.00,,,0.00,WUHU216DAVISVP2,2013-02-26 10:30:00,
2013-02-26 05:35:00,26.6,24.8,30.26,East,80,0.0,1.0,93,0.00,,,0.00,WUHU216DAVISVP2,2013-02-26 10:35:00,
2013-02-26 05:40:00,26.5,24.4,30.26,East,81,0.0,1.0,92,0.00,,,0.00,WUHU216DAVISVP2,2013-02-26 10:40:00,
2013-02-26 05:45:00,26.5,24.4,30.26,ENE,78,1.0,2.0,92,0.00,,,0.00,WUHU216DAVISVP2,2013-02-26 10:45:00,
2013-02-26 05:50:00,26.6,24.5,30.26,ENE,76,1.0,2.0,92,0.00,,,0.00,WUHU216DAVISVP2,2013-02-26 10:50:00,
2013-02-26 05:55:00,26.8,24.7,30.26,ENE,77,1.0,2.0,92,0.00,,,0.00,WUHU216DAVISVP2,2013-02-26 10:55:00,
2013-02-26 06:00:00,26.9,24.6,30.26,ENE,78,1.0,2.0,91,0.00,,,0.00,WUHU216DAVISVP2,2013-02-26 11:00:00,
2013-02-26 06:05:00,26.8,24.5,30.25,ENE,77,0.0,1.0,91,0.00,,,0.00,WUHU216DAVISVP2,2013-02-26 11:05:00,
2013-02-26 06:10:00,26.7,24.4,30.25,ENE,76,0.0,2.0,91,0.00,,,0.00,WUHU216DAVISVP2,2013-02-26 11:10:00,
2013-02-26 06:15:00,26.7,24.4,30.25,East,94,1.0,2.0,91,0.00,,,0.00,WUHU216DAVISVP2,2013-02-26 11:15:00,
2013-02-26 06:20:00,26.6,24.3,30.26,East,94,0.0,1.0,91,0.00,,,0.00,WUHU216DAVISVP2,2013-02-26 11:20:00,
2013-02-26 06:25:00,26.4,24.1,30.25,East,94,0.0,1.0,91,0.00,,,0.00,WUHU216DAVISVP2,2013-02-26 11:25:00,
2013-02-26 06:30:00,26.3,24.2,30.25,East,94,0.0,1.0,92,0.00,,,0.00,WUHU216DAVISVP2,2013-02-26 11:30:00,
2013-02-26 06:35:00,26.2,24.1,30.25,East,93,0.0,1.0,92,0.00,,,0.00,WUHU216DAVISVP2,2013-02-26 11:35:00,
2013-02-26 06:40:00,26.2,24.1,30.25,East,94,1.0,1.0,92,0.00,,,0.00,WUHU216DAVISVP2,2013-02-26 11:40:00,
2013-02-26 06:45:00,26.1,24.1,30.25,East,94,0.0,1.0,92,0.00,,,0.00,WUHU216DAVISVP2,2013-02-26 11:45:00,
2013-02-26 06:50:00,26.2,24.1,30.25,ENE,70,0.0,1.0,92,0.00,,,0.00,WUHU216DAVISVP2,2013-02-26 11:50:00,
2013-02-26 06:55:00,26.4,24.3,30.25,ESE,103,0.0,2.0,92,0.00,,,0.00,WUHU216DAVISVP2,2013-02-26 11:55:00,
2013-02-26 07:00:00,26.5,24.4,30.25,ESE,103,0.0,2.0,92,0.00,,,0.00,WUHU216DAVISVP2,2013-02-26 12:00:00,
2013-02-26 07:05:00,26.4,24.3,30.24,ESE,102,1.0,1.0,92,0.00,,,0.00,WUHU216DAVISVP2,2013-02-26 12:05:00,
2013-02-26 07:10:00,26.5,24.4,30.24,ESE,102,0.0,1.0,92,0.00,,,0.00,WUHU216DAVISVP2,2013-02-26 12:10:00,
2013-02-26 07:15:00,26.9,24.8,30.23,ESE,102,0.0,1.0,92,0.00,,,0.00,WUHU216DAVISVP2,2013-02-26 12:15:00,
2013-02-26 07:20:00,27.4,25.3,30.24,ESE,102,0.0,1.0,92,0.00,,,0.00,WUHU216DAVISVP2,2013-02-26 12:20:00,
2013-02-26 07:25:00,27.7,25.4,30.24,East,101,0.0,1.0,91,0.00,,,0.00,WUHU216DAVISVP2,2013-02-26 12:25:00,
2013-02-26 07:30:00,28.0,25.4,30.24,ESE,102,0.0,1.0,90,0.00,,,0.00,WUHU216DAVISVP2,2013-02-26 12:30:00,
2013-02-26 07:35:00,28.4,25.6,30.24,ESE,102,0.0,1.0,89,0.00,,,0.00,WUHU216DAVISVP2,2013-02-26 12:35:00,
2013-02-26 07:40:00,28.4,25.3,30.24,ENE,70,1.0,2.0,88,0.00,,,0.00,WUHU216DAVISVP2,2013-02-26 12:40:00,
2013-02-26 07:45:00,28.6,25.5,30.23,ENE,74,0.0,2.0,88,0.00,,,0.00,WUHU216DAVISVP2,2013-02-26 12:45:00,
2013-02-26 07:50:00,28.8,25.7,30.24,ENE,58,1.0,2.0,88,0.00,,,0.00,WUHU216DAVISVP2,2013-02-26 12:50:00,
2013-02-26 07:55:00,28.8,25.7,30.24,East,81,1.0,2.0,88,0.00,,,0.00,WUHU216DAVISVP2,2013-02-26 12:55:00,
2013-02-26 08:00:00,29.0,25.9,30.24,ESE,115,1.0,3.0,88,0.00,,,0.00,WUHU216DAVISVP2,2013-02-26 13:00:00,
2013-02-26 08:05:00,29.2,25.8,30.24,ENE,74,2.0,3.0,87,0.00,,,0.00,WUHU216DAVISVP2,2013-02-26 13:05:00,
2013-02-26 08:10:00,29.4,26.0,30.24,East,89,2.0,3.0,87,0.00,,,0.00,WUHU216DAVISVP2,2013-02-26 13:10:00,
2013-02-26 08:15:00,29.9,26.5,30.24,ESE,115,2.0,3.0,87,0.00,,,0.00,WUHU216DAVISVP2,2013-02-26 13:15:00,
2013-02-26 08:20:00,30.3,26.6,30.24,SE,132,1.0,3.0,86,0.00,,,0.00,WUHU216DAVISVP2,2013-02-26 13:20:00,
2013-02-26 08:25:00,30.6,26.6,30.24,ESE,121,1.0,3.0,85,0.00,,,0.00,WUHU216DAVISVP2,2013-02-26 13:25:00,
2013-02-26 08:30:00,30.9,26.9,30.24,SE,133,0.0,3.0,85,0.00,,,0.00,WUHU216DAVISVP2,2013-02-26 13:30:00,
2013-02-26 08:35:00,31.2,26.9,30.25,SSE,158,2.0,4.0,84,0.00,,,0.00,WUHU216DAVISVP2,2013-02-26 13:35:00,
2013-02-26 08:40:00,31.5,27.5,30.25,SE,145,1.0,4.0,85,0.00,,,0.00,WUHU216DAVISVP2,2013-02-26 13:40:00,
2013-02-26 08:45:00,31.8,27.8,30.25,SSE,165,0.0,4.0,85,0.00,,,0.00,WUHU216DAVISVP2,2013-02-26 13:45:00,
2013-02-26 08:50:00,32.2,28.5,30.24,ESE,121,0.0,4.0,86,0.00,,,0.00,WUHU216DAVISVP2,2013-02-26 13:50:00,
2013-02-26 08:55:00,32.7,28.9,30.24,SSE,150,1.0,4.0,86,0.00,,,0.00,WUHU216DAVISVP2,2013-02-26 13:55:00,
2013-02-26 09:00:00,33.0,29.0,30.24,SSE,151,4.0,5.0,85,0.00,,,0.00,WUHU216DAVISVP2,2013-02-26 14:00:00,
2013-02-26 09:05:00,33.1,29.1,30.24,SSE,147,3.0,6.0,85,0.00,,,0.00,WUHU216DAVISVP2,2013-02-26 14:05:00,
2013-02-26 09:10:00,33.2,28.9,30.24,SSE,148,3.0,8.0,84,0.00,,,0.00,WUHU216DAVISVP2,2013-02-26 14:10:00,
2013-02-26 09:15:00,33.2,28.9,30.24,SSE,155,3.0,8.0,84,0.00,,,0.00,WUHU216DAVISVP2,2013-02-26 14:15:00,
2013-02-26 09:20:00,33.5,28.9,30.24,SSE,159,3.0,8.0,83,0.00,,,0.00,WUHU216DAVISVP2,2013-02-26 14:20:00,
2013-02-26 09:25:00,34.0,29.4,30.24,SE,135,2.0,8.0,83,0.00,,,0.00,WUHU216DAVISVP2,2013-02-26 14:25:00,
2013-02-26 09:30:00,34.4,29.2,30.25,SSE,163,7.0,8.0,81,0.00,,,0.00,WUHU216DAVISVP2,2013-02-26 14:30:00,
2013-02-26 09:35:00,34.5,29.0,30.25,SSE,165,4.0,11.0,80,0.00,,,0.00,WUHU216DAVISVP2,2013-02-26 14:35:00,
2013-02-26 09:40:00,34.7,28.9,30.25,SSE,150,3.0,11.0,79,0.00,,,0.00,WUHU216DAVISVP2,2013-02-26 14:40:00,
2013-02-26 09:45:00,35.2,29.7,30.25,SSE,163,3.0,11.0,80,0.00,,,0.00,WUHU216DAVISVP2,2013-02-26 14:45:00,
2013-02-26 09:50:00,35.5,29.3,30.24,SSE,158,5.0,11.0,78,0.00,,,0.00,WUHU216DAVISVP2,2013-02-26 14:50:00,
2013-02-26 09:55:00,35.6,29.1,30.24,SSE,148,2.0,10.0,77,0.00,,,0.00,WUHU216DAVISVP2,2013-02-26 14:55:00,
2013-02-26 10:00:00,35.9,29.1,30.24,ESE,123,1.0,10.0,76,0.00,,,0.00,WUHU216DAVISVP2,2013-02-26 15:00:00,
2013-02-26 10:05:00,36.5,29.4,30.24,SE,138,3.0,10.0,75,0.00,,,0.00,WUHU216DAVISVP2,2013-02-26 15:05:00,
2013-02-26 10:10:00,36.9,29.4,30.24,South,173,7.0,10.0,74,0.00,,,0.00,WUHU216DAVISVP2,2013-02-26 15:10:00,
2013-02-26 10:15:00,36.7,28.9,30.24,SSE,153,9.0,13.0,73,0.00,,,0.00,WUHU216DAVISVP2,2013-02-26 15:15:00,
2013-02-26 10:20:00,36.7,28.9,30.23,SW,221,3.0,14.0,73,0.00,,,0.00,WUHU216DAVISVP2,2013-02-26 15:20:00,
2013-02-26 10:25:00,36.9,29.1,30.22,SE,132,5.0,14.0,73,0.00,,,0.00,WUHU216DAVISVP2,2013-02-26 15:25:00,
2013-02-26 10:30:00,37.3,29.5,30.22,SE,138,1.0,14.0,73,0.00,,,0.00,WUHU216DAVISVP2,2013-02-26 15:30:00,
2013-02-26 10:35:00,38.1,29.9,30.21,SSE,159,4.0,12.0,72,0.00,,,0.00,WUHU216DAVISVP2,2013-02-26 15:35:00,
2013-02-26 10:40:00,38.4,29.5,30.21,SSE,158,7.0,10.0,70,0.00,,,0.00,WUHU216DAVISVP2,2013-02-26 15:40:00,
2013-02-26 10:45:00,38.6,29.3,30.21,SSE,148,5.0,11.0,69,0.00,,,0.00,WUHU216DAVISVP2,2013-02-26 15:45:00,
2013-02-26 10:50:00,39.1,29.1,30.21,South,177,6.0,12.0,67,0.00,,,0.00,WUHU216DAVISVP2,2013-02-26 15:50:00,
2013-02-26 10:55:00,39.3,28.9,30.20,South,173,3.0,12.0,66,0.00,,,0.00,WUHU216DAVISVP2,2013-02-26 15:55:00,
2013-02-26 11:00:00,39.8,28.6,30.20,SE,139,8.0,12.0,64,0.00,,,0.00,WUHU216DAVISVP2,2013-02-26 16:00:00,
2013-02-26 11:05:00,40.1,28.5,30.20,East,99,8.0,13.0,63,0.00,,,0.00,WUHU216DAVISVP2,2013-02-26 16:05:00,
2013-02-26 11:10:00,40.3,28.3,30.20,SE,143,9.0,14.0,62,0.00,,,0.00,WUHU216DAVISVP2,2013-02-26 16:10:00,
2013-02-26 11:15:00,40.4,28.9,30.20,South,172,10.0,14.0,63,0.00,,,0.00,WUHU216DAVISVP2,2013-02-26 16:15:00,
2013-02-26 11:20:00,40.9,29.0,30.20,SE,131,3.0,14.0,62,0.00,,,0.00,WUHU216DAVISVP2,2013-02-26 16:20:00,
2013-02-26 11:26:00,41.2,29.2,30.20,SE,145,7.0,14.0,62,0.00,,,0.00,WUHU216DAVISVP2,2013-02-26 16:26:00,
2013-02-26 11:31:00,41.5,29.5,30.20,South,175,8.0,10.0,62,0.00,,,0.00,WUHU216DAVISVP2,2013-02-26 16:31:00,
2013-02-26 11:36:00,42.0,29.6,30.20,SSW,207,11.0,13.0,61,0.00,,,0.00,WUHU216DAVISVP2,2013-02-26 16:36:00,
2013-02-26 11:41:00,42.3,29.5,30.20,SSW,203,4.0,13.0,60,0.00,,,0.00,WUHU216DAVISVP2,2013-02-26 16:41:00,
2013-02-26 11:46:00,42.4,30.0,30.19,South,184,3.0,15.0,61,0.00,,,0.00,WUHU216DAVISVP2,2013-02-26 16:46:00,
2013-02-26 11:51:00,42.7,29.8,30.19,South,172,5.0,15.0,60,0.00,,,0.00,WUHU216DAVISVP2,2013-02-26 16:51:00,
2013-02-26 11:56:00,42.7,29.8,30.19,SE,134,6.0,15.0,60,0.00,,,0.00,WUHU216DAVISVP2,2013-02-26 16:56:00,
2013-02-26 12:01:00,42.7,29.4,30.18,South,172,7.0,15.0,59,0.00,,,0.00,WUHU216DAVISVP2,2013-02-26 17:01:00,
2013-02-26 12:06:00,42.8,29.5,30.18,ESE,121,6.0,12.0,59,0.00,,,0.00,WUHU216DAVISVP2,2013-02-26 17:06:00,
2013-02-26 12:11:00,43.1,28.9,30.17,South,169,4.0,12.0,57,0.00,,,0.00,WUHU216DAVISVP2,2013-02-26 17:11:00,
2013-02-26 12:16:00,43.4,28.8,30.17,SE,145,8.0,15.0,56,0.00,,,0.00,WUHU216DAVISVP2,2013-02-26 17:16:00,
2013-02-26 12:21:00,43.3,28.2,30.16,SE,136,9.0,18.0,55,0.00,,,0.00,WUHU216DAVISVP2,2013-02-26 17:21:00,
2013-02-26 12:26:00,43.3,28.2,30.16,SE,139,3.0,18.0,55,0.00,,,0.00,WUHU216DAVISVP2,2013-02-26 17:26:00,
2013-02-26 12:31:00,43.6,28.5,30.15,SSE,156,5.0,18.0,55,0.00,,,0.00,WUHU216DAVISVP2,2013-02-26 17:31:00,
2013-02-26 12:36:00,44.0,28.9,30.15,SSE,153,6.0,18.0,55,0.00,,,0.00,WUHU216DAVISVP2,2013-02-26 17:36:00,
2013-02-26 12:41:00,44.1,29.4,30.15,South,179,7.0,14.0,56,0.00,,,0.00,WUHU216DAVISVP2,2013-02-26 17:41:00,
2013-02-26 12:46:00,44.0,28.9,30.15,SE,124,3.0,13.0,55,0.00,,,0.00,WUHU216DAVISVP2,2013-02-26 17:46:00,
2013-02-26 12:51:00,44.0,28.4,30.14,ESE,117,3.0,15.0,54,0.00,,,0.00,WUHU216DAVISVP2,2013-02-26 17:51:00,
2013-02-26 12:56:00,43.9,28.3,30.13,ESE,121,4.0,15.0,54,0.00,,,0.00,WUHU216DAVISVP2,2013-02-26 17:56:00,
2013-02-26 13:01:00,43.7,28.1,30.13,SE,131,5.0,14.0,54,0.00,,,0.00,WUHU216DAVISVP2,2013-02-26 18:01:00,
2013-02-26 13:06:00,43.6,28.5,30.12,East,97,7.0,14.0,55,0.00,,,0.00,WUHU216DAVISVP2,2013-02-26 18:06:00,
2013-02-26 13:11:00,44.0,28.4,30.12,SE,139,6.0,12.0,54,0.00,,,0.00,WUHU216DAVISVP2,2013-02-26 18:11:00,
2013-02-26 13:16:00,43.8,28.2,30.12,SE,141,4.0,15.0,54,0.00,,,0.00,WUHU216DAVISVP2,2013-02-26 18:16:00,
2013-02-26 13:21:00,43.6,28.5,30.11,ESE,103,10.0,19.0,55,0.00,,,0.00,WUHU216DAVISVP2,2013-02-26 18:21:00,
2013-02-26 13:26:00,43.8,28.7,30.11,SE,129,4.0,19.0,55,0.00,,,0.00,WUHU216DAVISVP2,2013-02-26 18:26:00,
2013-02-26 13:30:00,43.9,28.8,30.11,SE,128,8.0,17.0,55,0.00,,,0.00,WUHU216DAVISVP2,2013-02-26 18:30:00,
2013-02-26 13:35:00,44.0,28.4,30.11,ESE,123,5.0,17.0,54,0.00,,,0.00,WUHU216DAVISVP2,2013-02-26 18:35:00,
2013-02-26 13:40:00,44.2,28.1,30.11,East,97,5.0,13.0,53,0.00,,,0.00,WUHU216DAVISVP2,2013-02-26 18:40:00,
2013-02-26 13:45:00,44.4,28.3,30.10,ENE,74,12.0,16.0,53,0.00,,,0.00,WUHU216DAVISVP2,2013-02-26 18:45:00,
2013-02-26 13:50:00,44.3,28.2,30.10,SE,132,6.0,16.0,53,0.00,,,0.00,WUHU216DAVISVP2,2013-02-26 18:50:00,
2013-02-26 13:55:00,44.4,28.3,30.10,SE,141,5.0,16.0,53,0.00,,,0.00,WUHU216DAVISVP2,2013-02-26 18:55:00,
2013-02-26 14:00:00,44.1,28.5,30.10,SE,124,6.0,15.0,54,0.00,,,0.00,WUHU216DAVISVP2,2013-02-26 19:00:00,
2013-02-26 14:05:00,44.0,28.4,30.09,ESE,109,6.0,15.0,54,0.00,,,0.00,WUHU216DAVISVP2,2013-02-26 19:05:00,
2013-02-26 14:10:00,43.8,28.2,30.09,SE,134,4.0,13.0,54,0.00,,,0.00,WUHU216DAVISVP2,2013-02-26 19:10:00,
2013-02-26 14:15:00,43.9,28.8,30.09,South,182,9.0,12.0,55,0.00,,,0.00,WUHU216DAVISVP2,2013-02-26 19:15:00,
2013-02-26 14:20:00,43.9,28.3,30.09,SE,124,2.0,13.0,54,0.00,,,0.00,WUHU216DAVISVP2,2013-02-26 19:20:00,
2013-02-26 14:25:00,44.0,28.4,30.09,SSE,148,11.0,13.0,54,0.00,,,0.00,WUHU216DAVISVP2,2013-02-26 19:25:00,
2013-02-26 14:30:00,43.8,28.7,30.08,ESE,110,6.0,16.0,55,0.00,,,0.00,WUHU216DAVISVP2,2013-02-26 19:30:00,
2013-02-26 14:35:00,43.7,28.1,30.08,South,183,3.0,16.0,54,0.00,,,0.00,WUHU216DAVISVP2,2013-02-26 19:35:00,
2013-02-26 14:40:00,43.7,29.1,30.08,SE,124,6.0,16.0,56,0.00,,,0.00,WUHU216DAVISVP2,2013-02-26 19:40:00,
2013-02-26 14:45:00,43.7,28.6,30.08,SE,142,4.0,15.0,55,0.00,,,0.00,WUHU216DAVISVP2,2013-02-26 19:45:00,
2013-02-26 14:50:00,43.6,28.9,30.08,ESE,118,4.0,13.0,56,0.00,,,0.00,WUHU216DAVISVP2,2013-02-26 19:50:00,
2013-02-26 14:55:00,43.7,29.0,30.09,SE,139,2.0,13.0,56,0.00,,,0.00,WUHU216DAVISVP2,2013-02-26 19:55:00,
2013-02-26 15:00:00,43.7,28.6,30.09,South,170,6.0,13.0,55,0.00,,,0.00,WUHU216DAVISVP2,2013-02-26 20:00:00,
2013-02-26 15:05:00,43.8,28.2,30.08,SSE,160,4.0,13.0,54,0.00,,,0.00,WUHU216DAVISVP2,2013-02-26 20:05:00,
2013-02-26 15:10:00,43.8,28.2,30.08,ESE,110,7.0,15.0,54,0.00,,,0.00,WUHU216DAVISVP2,2013-02-26 20:10:00,
2013-02-26 15:16:00,43.7,28.6,30.07,SE,137,4.0,15.0,55,0.00,,,0.00,WUHU216DAVISVP2,2013-02-26 20:16:00,
2013-02-26 15:21:00,43.6,28.5,30.07,SSE,148,6.0,15.0,55,0.00,,,0.00,WUHU216DAVISVP2,2013-02-26 20:21:00,
2013-02-26 15:26:00,43.5,28.4,30.07,ESE,110,6.0,15.0,55,0.00,,,0.00,WUHU216DAVISVP2,2013-02-26 20:26:00,
2013-02-26 15:31:00,43.4,28.3,30.07,ESE,110,3.0,13.0,55,0.00,,,0.00,WUHU216DAVISVP2,2013-02-26 20:31:00,
2013-02-26 15:36:00,43.3,28.2,30.07,South,172,4.0,16.0,55,0.00,,,0.00,WUHU216DAVISVP2,2013-02-26 20:36:00,
2013-02-26 15:41:00,43.3,28.2,30.07,East,86,4.0,16.0,55,0.00,,,0.00,WUHU216DAVISVP2,2013-02-26 20:41:00,
2013-02-26 15:46:00,43.3,28.7,30.06,ESE,111,4.0,15.0,56,0.00,,,0.00,WUHU216DAVISVP2,2013-02-26 20:46:00,
2013-02-26 15:51:00,43.2,28.6,30.06,East,94,5.0,15.0,56,0.00,,,0.00,WUHU216DAVISVP2,2013-02-26 20:51:00,
2013-02-26 15:56:00,43.1,28.5,30.06,SE,132,5.0,15.0,56,0.00,,,0.00,WUHU216DAVISVP2,2013-02-26 20:56:00,
2013-02-26 16:01:00,43.1,28.9,30.06,SE,134,6.0,14.0,57,0.00,,,0.00,WUHU216DAVISVP2,2013-02-26 21:01:00,
2013-02-26 16:06:00,43.0,29.3,30.06,SSE,155,5.0,14.0,58,0.00,,,0.00,WUHU216DAVISVP2,2013-02-26 21:06:00,
2013-02-26 16:11:00,42.9,29.2,30.05,SSE,149,7.0,14.0,58,0.00,,,0.00,WUHU216DAVISVP2,2013-02-26 21:11:00,
2013-02-26 16:16:00,42.9,29.5,30.05,South,169,3.0,13.0,59,0.00,,,0.00,WUHU216DAVISVP2,2013-02-26 21:16:00,
2013-02-26 16:21:00,42.7,29.4,30.04,SE,145,6.0,12.0,59,0.00,,,0.00,WUHU216DAVISVP2,2013-02-26 21:21:00,
2013-02-26 16:26:00,42.6,29.3,30.04,SSE,162,4.0,13.0,59,0.00,,,0.00,WUHU216DAVISVP2,2013-02-26 21:26:00,
2013-02-26 16:31:00,42.5,29.7,30.03,ESE,117,6.0,13.0,60,0.00,,,0.00,WUHU216DAVISVP2,2013-02-26 21:31:00,
2013-02-26 16:36:00,42.3,29.9,30.03,ESE,120,5.0,13.0,61,0.00,,,0.00,WUHU216DAVISVP2,2013-02-26 21:36:00,
2013-02-26 16:41:00,42.2,29.8,30.03,SE,138,6.0,13.0,61,0.00,,,0.00,WUHU216DAVISVP2,2013-02-26 21:41:00,
2013-02-26 16:45:00,42.0,29.6,30.02,East,96,2.0,13.0,61,0.00,,,0.00,WUHU216DAVISVP2,2013-02-26 21:45:00,
2013-02-26 16:51:00,41.9,29.5,30.03,SE,131,5.0,13.0,61,0.00,,,0.00,WUHU216DAVISVP2,2013-02-26 21:51:00,
2013-02-26 16:55:00,41.8,29.8,30.03,ESE,120,3.0,12.0,62,0.00,,,0.00,WUHU216DAVISVP2,2013-02-26 21:55:00,
2013-02-26 17:01:00,41.7,29.7,30.02,ENE,75,6.0,12.0,62,0.00,,,0.00,WUHU216DAVISVP2,2013-02-26 22:01:00,
2013-02-26 17:06:00,41.6,29.9,30.02,East,87,2.0,12.0,63,0.00,,,0.00,WUHU216DAVISVP2,2013-02-26 22:06:00,
2013-02-26 17:11:00,41.5,29.8,30.03,SE,131,4.0,12.0,63,0.00,,,0.00,WUHU216DAVISVP2,2013-02-26 22:11:00,
2013-02-26 17:16:00,41.5,29.9,30.03,ESE,109,5.0,12.0,63,0.00,,,0.00,WUHU216DAVISVP2,2013-02-26 22:16:00,
2013-02-26 17:21:00,41.4,29.8,30.02,East,87,3.0,14.0,63,0.00,,,0.00,WUHU216DAVISVP2,2013-02-26 22:21:00,
2013-02-26 17:26:00,41.3,29.7,30.03,SE,143,2.0,14.0,63,0.00,,,0.00,WUHU216DAVISVP2,2013-02-26 22:26:00,
2013-02-26 17:31:00,41.3,29.7,30.03,East,83,12.0,14.0,63,0.00,,,0.00,WUHU216DAVISVP2,2013-02-26 22:31:00,
2013-02-26 17:36:00,41.2,29.6,30.03,SW,226,5.0,14.0,63,0.00,,,0.00,WUHU216DAVISVP2,2013-02-26 22:36:00,
2013-02-26 17:41:00,41.1,29.9,30.03,SSE,151,9.0,14.0,64,0.00,,,0.00,WUHU216DAVISVP2,2013-02-26 22:41:00,
2013-02-26 17:46:00,41.0,29.8,30.03,SSE,165,13.0,13.0,64,0.00,,,0.00,WUHU216DAVISVP2,2013-02-26 22:46:00,
2013-02-26 17:51:00,40.9,29.7,30.04,ESE,112,4.0,13.0,64,0.00,,,0.00,WUHU216DAVISVP2,2013-02-26 22:51:00,
2013-02-26 17:56:00,40.7,29.9,30.04,East,82,2.0,13.0,65,0.00,,,0.00,WUHU216DAVISVP2,2013-02-26 22:56:00,
2013-02-26 18:01:00,40.6,29.8,30.04,SSE,151,6.0,17.0,65,0.00,,,0.00,WUHU216DAVISVP2,2013-02-26 23:01:00,
2013-02-26 18:06:00,40.6,29.8,30.04,East,89,7.0,17.0,65,0.00,,,0.00,WUHU216DAVISVP2,2013-02-26 23:06:00,
2013-02-26 18:11:00,40.6,29.7,30.03,SSE,168,13.0,17.0,65,0.00,,,0.00,WUHU216DAVISVP2,2013-02-26 23:11:00,
2013-02-26 18:16:00,40.5,29.7,30.03,East,84,9.0,17.0,65,0.00,,,0.00,WUHU216DAVISVP2,2013-02-26 23:16:00,
2013-02-26 18:21:00,40.4,29.9,30.02,SE,138,10.0,15.0,66,0.00,,,0.00,WUHU216DAVISVP2,2013-02-26 23:21:00,
2013-02-26 18:26:00,40.3,29.8,30.02,ESE,114,6.0,15.0,66,0.00,,,0.00,WUHU216DAVISVP2,2013-02-26 23:26:00,
2013-02-26 18:31:00,40.2,29.7,30.02,SE,124,3.0,16.0,66,0.00,,,0.00,WUHU216DAVISVP2,2013-02-26 23:31:00,
2013-02-26 18:36:00,40.2,30.1,30.01,ESE,108,5.0,16.0,67,0.00,,,0.00,WUHU216DAVISVP2,2013-02-26 23:36:00,
2013-02-26 18:41:00,40.1,29.7,30.01,SE,134,5.0,17.0,66,0.00,,,0.00,WUHU216DAVISVP2,2013-02-26 23:41:00,
2013-02-26 18:46:00,40.0,30.0,30.02,ENE,67,5.0,17.0,67,0.00,,,0.00,WUHU216DAVISVP2,2013-02-26 23:46:00,
2013-02-26 18:51:00,40.0,30.0,30.02,ESE,113,8.0,16.0,67,0.00,,,0.00,WUHU216DAVISVP2,2013-02-26 23:51:00,
2013-02-26 18:56:00,39.9,30.3,30.02,SE,127,4.0,15.0,68,0.00,,,0.00,WUHU216DAVISVP2,2013-02-26 23:56:00,
2013-02-26 19:01:00,39.9,30.3,30.02,ESE,113,10.0,12.0,68,0.00,,,0.00,WUHU216DAVISVP2,2013-02-27 00:01:00,
2013-02-26 19:06:00,39.9,30.3,30.02,SE,128,6.0,12.0,68,0.00,,,0.00,WUHU216DAVISVP2,2013-02-27 00:06:00,
2013-02-26 19:11:00,39.8,30.2,30.02,ESE,121,6.0,12.0,68,0.00,,,0.00,WUHU216DAVISVP2,2013-02-27 00:11:00,
2013-02-26 19:16:00,39.7,30.4,30.02,East,101,6.0,12.0,69,0.00,,,0.00,WUHU216DAVISVP2,2013-02-27 00:16:00,
2013-02-26 19:21:00,39.7,30.4,30.02,SE,132,7.0,14.0,69,0.00,,,0.00,WUHU216DAVISVP2,2013-02-27 00:21:00,
2013-02-26 19:26:00,39.7,30.4,30.01,SE,146,10.0,14.0,69,0.00,,,0.00,WUHU216DAVISVP2,2013-02-27 00:26:00,
2013-02-26 19:31:00,39.7,30.4,30.01,SSE,157,4.0,14.0,69,0.00,,,0.00,WUHU216DAVISVP2,2013-02-27 00:31:00,
2013-02-26 19:36:00,39.7,30.4,30.01,East,84,3.0,14.0,69,0.00,,,0.00,WUHU216DAVISVP2,2013-02-27 00:36:00,
2013-02-26 19:41:00,39.6,30.3,30.01,ESE,112,5.0,15.0,69,0.00,,,0.00,WUHU216DAVISVP2,2013-02-27 00:41:00,
2013-02-26 19:46:00,39.6,30.7,30.00,ESE,114,11.0,15.0,70,0.00,,,0.00,WUHU216DAVISVP2,2013-02-27 00:46:00,
2013-02-26 19:51:00,39.5,30.5,30.00,ESE,103,5.0,15.0,70,0.00,,,0.00,WUHU216DAVISVP2,2013-02-27 00:51:00,
2013-02-26 19:56:00,39.4,30.4,30.00,SE,134,2.0,15.0,70,0.00,,,0.00,WUHU216DAVISVP2,2013-02-27 00:56:00,
2013-02-26 20:01:00,39.4,30.5,30.00,SE,145,4.0,15.0,70,0.00,,,0.00,WUHU216DAVISVP2,2013-02-27 01:01:00,
2013-02-26 20:06:00,39.4,30.5,29.99,SE,133,4.0,15.0,70,0.00,,,0.00,WUHU216DAVISVP2,2013-02-27 01:06:00,
2013-02-26 20:11:00,39.3,30.8,29.99,East,95,3.0,15.0,71,0.00,,,0.00,WUHU216DAVISVP2,2013-02-27 01:11:00,
2013-02-26 20:16:00,39.2,30.7,29.98,East,88,6.0,13.0,71,0.00,,,0.00,WUHU216DAVISVP2,2013-02-27 01:16:00,
2013-02-26 20:21:00,39.2,30.7,29.98,SSE,156,5.0,12.0,71,0.00,,,0.00,WUHU216DAVISVP2,2013-02-27 01:21:00,
2013-02-26 20:26:00,39.0,31.1,29.97,SE,138,3.0,19.0,73,0.00,,,0.00,WUHU216DAVISVP2,2013-02-27 01:26:00,
2013-02-26 20:31:00,38.7,31.5,29.97,SSE,153,3.0,19.0,75,0.00,,,0.00,WUHU216DAVISVP2,2013-02-27 01:31:00,
2013-02-26 20:36:00,38.3,31.8,29.96,ESE,122,4.0,18.0,77,0.00,,,0.00,WUHU216DAVISVP2,2013-02-27 01:36:00,
2013-02-26 20:41:00,38.0,31.8,29.96,ESE,107,4.0,18.0,78,0.00,,,0.00,WUHU216DAVISVP2,2013-02-27 01:41:00,
2013-02-26 20:46:00,37.7,31.5,29.95,East,101,2.0,14.0,78,0.00,,,0.00,WUHU216DAVISVP2,2013-02-27 01:46:00,
2013-02-26 20:51:00,37.5,31.6,29.95,ESE,108,10.0,17.0,79,0.00,,,0.00,WUHU216DAVISVP2,2013-02-27 01:51:00,
2013-02-26 20:56:00,37.3,32.0,29.94,East,92,8.0,17.0,81,0.00,,,0.00,WUHU216DAVISVP2,2013-02-27 01:56:00,
2013-02-26 21:01:00,36.9,32.2,29.94,SE,131,3.0,17.0,83,0.00,,,0.00,WUHU216DAVISVP2,2013-02-27 02:01:00,
2013-02-26 21:06:00,36.5,32.4,29.94,ESE,117,4.0,17.0,85,0.00,,,0.00,WUHU216DAVISVP2,2013-02-27 02:06:00,
2013-02-26 21:11:00,36.3,32.5,29.93,East,101,4.0,13.0,86,0.01,,,0.01,WUHU216DAVISVP2,2013-02-27 02:11:00,
2013-02-26 21:16:00,36.2,32.4,29.93,SE,143,4.0,13.0,86,0.01,,,0.01,WUHU216DAVISVP2,2013-02-27 02:16:00,
2013-02-26 21:21:00,36.0,32.5,29.93,East,82,5.0,10.0,87,0.01,,,0.01,WUHU216DAVISVP2,2013-02-27 02:21:00,
2013-02-26 21:26:00,35.9,32.4,29.93,ENE,70,5.0,9.0,87,0.01,,,0.01,WUHU216DAVISVP2,2013-02-27 02:26:00,
2013-02-26 21:31:00,35.9,32.4,29.93,ESE,109,3.0,9.0,87,0.01,,,0.01,WUHU216DAVISVP2,2013-02-27 02:31:00,
2013-02-26 21:36:00,35.8,32.6,29.93,SSE,157,1.0,7.0,88,0.01,,,0.01,WUHU216DAVISVP2,2013-02-27 02:36:00,
2013-02-26 21:41:00,35.6,32.4,29.92,ESE,123,4.0,8.0,88,0.01,,,0.01,WUHU216DAVISVP2,2013-02-27 02:41:00,
2013-02-26 21:46:00,35.6,32.4,29.92,SE,131,4.0,12.0,88,0.01,,,0.01,WUHU216DAVISVP2,2013-02-27 02:46:00,
2013-02-26 21:51:00,35.6,32.4,29.92,SE,132,3.0,12.0,88,0.01,,,0.01,WUHU216DAVISVP2,2013-02-27 02:51:00,
2013-02-26 21:56:00,35.5,32.5,29.92,SSE,157,1.0,11.0,89,0.01,,,0.01,WUHU216DAVISVP2,2013-02-27 02:56:00,
2013-02-26 22:01:00,35.3,32.3,29.92,ESE,107,2.0,11.0,89,0.02,,,0.02,WUHU216DAVISVP2,2013-02-27 03:01:00,
2013-02-26 22:06:00,35.2,32.5,29.92,SSE,156,1.0,7.0,90,0.02,,,0.02,WUHU216DAVISVP2,2013-02-27 03:06:00,
2013-02-26 22:11:00,35.1,32.4,29.92,ESE,108,1.0,5.0,90,0.01,,,0.02,WUHU216DAVISVP2,2013-02-27 03:11:00,
2013-02-26 22:16:00,35.0,32.3,29.93,ESE,109,0.0,4.0,90,0.01,,,0.02,WUHU216DAVISVP2,2013-02-27 03:16:00,
2013-02-26 22:21:00,34.9,32.2,29.92,East,101,0.0,4.0,90,0.01,,,0.02,WUHU216DAVISVP2,2013-02-27 03:21:00,
2013-02-26 22:26:00,34.8,32.4,29.92,ESE,107,0.0,4.0,91,0.01,,,0.02,WUHU216DAVISVP2,2013-02-27 03:26:00,
2013-02-26 22:31:00,34.5,32.1,29.92,North,5,0.0,2.0,91,0.01,,,0.02,WUHU216DAVISVP2,2013-02-27 03:31:00,
2013-02-26 22:36:00,34.3,32.2,29.93,North,354,0.0,1.0,92,0.01,,,0.02,WUHU216DAVISVP2,2013-02-27 03:36:00,
2013-02-26 22:41:00,34.0,31.9,29.93,WNW,285,0.0,1.0,92,0.01,,,0.02,WUHU216DAVISVP2,2013-02-27 03:41:00,
2013-02-26 22:46:00,33.8,31.9,29.93,WNW,293,0.0,1.0,93,0.01,,,0.02,WUHU216DAVISVP2,2013-02-27 03:46:00,
2013-02-26 22:51:00,33.6,31.7,29.93,WNW,293,0.0,1.0,93,0.01,,,0.02,WUHU216DAVISVP2,2013-02-27 03:51:00,
2013-02-26 22:56:00,33.5,31.6,29.92,NNW,343,1.0,1.0,93,0.01,,,0.02,WUHU216DAVISVP2,2013-02-27 03:56:00,
2013-02-26 23:01:00,33.3,31.7,29.93,NNW,330,0.0,1.0,94,0.00,,,0.02,WUHU216DAVISVP2,2013-02-27 04:01:00,
2013-02-26 23:06:00,33.3,31.7,29.93,WNW,283,0.0,1.0,94,0.00,,,0.02,WUHU216DAVISVP2,2013-02-27 04:06:00,
2013-02-26 23:11:00,33.2,31.9,29.94,West,278,0.0,1.0,95,0.00,,,0.02,WUHU216DAVISVP2,2013-02-27 04:11:00,
2013-02-26 23:16:00,33.2,31.9,29.93,NNE,25,0.0,1.0,95,0.00,,,0.02,WUHU216DAVISVP2,2013-02-27 04:16:00,
2013-02-26 23:21:00,33.2,31.9,29.93,NNE,13,0.0,1.0,95,0.00,,,0.02,WUHU216DAVISVP2,2013-02-27 04:21:00,
2013-02-26 23:26:00,33.2,31.9,29.93,North,11,0.0,1.0,95,0.00,,,0.02,WUHU216DAVISVP2,2013-02-27 04:26:00,
2013-02-26 23:31:00,33.2,31.9,29.93,NNE,25,0.0,1.0,95,0.00,,,0.02,WUHU216DAVISVP2,2013-02-27 04:31:00,
2013-02-26 23:36:00,33.1,31.8,29.93,NNE,29,0.0,1.0,95,0.00,,,0.02,WUHU216DAVISVP2,2013-02-27 04:36:00,
2013-02-26 23:41:00,33.1,31.8,29.93,NNW,347,0.0,1.0,95,0.00,,,0.02,WUHU216DAVISVP2,2013-02-27 04:41:00,
2013-02-26 23:46:00,33.0,31.9,29.92,NE,44,0.0,2.0,96,0.00,,,0.02,WUHU216DAVISVP2,2013-02-27 04:46:00,
2013-02-26 23:51:00,33.0,31.9,29.92,NE,44,0.0,2.0,96,0.00,,,0.02,WUHU216DAVISVP2,2013-02-27 04:51:00,
2013-02-26 23:56:00,33.0,32.0,29.92,NNE,29,0.0,2.0,96,0.00,,,0.02,WUHU216DAVISVP2,2013-02-27 04:56:00,